W0KHZ Weather Reports


time (UTC)temp
C
wind
direction
speed
KPH
gust
KPH
rain 1hr
cm
rain 24hr
cm
rain mn
cm
humidity
%
barometer
mb
20260509010548 20 241 3.2 17.7 0.00 0.00 0.00 28 999.6
20260509010026 20 337 1.6 3.2 0.00 0.00 0.00 28 999.7
20260509005524 20 328 1.6 3.2 0.00 0.00 0.00 28 999.6
20260509005042 20 352 1.6 6.4 0.00 0.00 0.00 28 999.5
20260509004519 20 2 1.6 4.8 0.00 0.00 0.00 28 999.5
20260509004037 20 348 1.6 4.8 0.00 0.00 0.00 28 999.5
20260509003535 20 312 1.6 3.2 0.00 0.00 0.00 28 999.6
20260509003033 20 309 1.6 9.7 0.00 0.00 0.00 28 999.6
20260509002531 20 299 1.6 9.7 0.00 0.00 0.00 27 999.6
20260509002030 20 284 3.2 11.3 0.00 0.00 0.00 27 999.7
20260509001527 20 249 3.2 11.3 0.00 0.00 0.00 26 999.6
20260509001026 20 324 1.6 4.8 0.00 0.00 0.00 27 999.7
20260509000523 21 336 1.6 6.4 0.00 0.00 0.00 26 999.7
20260509000022 21 214 3.2 11.3 0.00 0.00 0.00 26 999.6
20260508235519 21 163 1.6 11.3 0.00 0.00 0.00 26 999.8
20260508235017 21 103 3.2 9.7 0.00 0.00 0.00 25 999.9
20260508234515 21 310 4.8 14.5 0.00 0.00 0.00 26 999.9
20260508234033 21 299 1.6 6.4 0.00 0.00 0.00 25 999.9
20260508233532 21 323 3.2 6.4 0.00 0.00 0.00 24 1000.0
20260508233030 21 347 6.4 12.9 0.00 0.00 0.00 24 1000.2
20260508232528 22 327 4.8 14.5 0.00 0.00 0.00 24 1000.2
20260508232026 22 327 4.8 14.5 0.00 0.00 0.00 24 1000.1
20260508231544 22 195 6.4 12.9 0.00 0.00 0.00 24 1000.2
20260508231022 22 303 3.2 9.7 0.00 0.00 0.00 26 1000.3
20260508230520 22 258 1.6 6.4 0.00 0.00 0.00 26 1000.3
20260508230038 21 289 1.6 6.4 0.00 0.00 0.00 26 1000.3
20260508225516 21 299 3.2 12.9 0.00 0.00 0.00 25 1000.4
20260508225034 22 337 4.8 16.1 0.00 0.00 0.00 24 1000.5
20260508224532 22 3 4.8 17.7 0.00 0.00 0.00 25 1000.5
20260508224030 22 168 1.6 6.4 0.00 0.00 0.00 27 1000.4
20260508223528 21 229 3.2 4.8 0.00 0.00 0.00 26 1000.4
20260508223026 21 227 1.6 12.9 0.00 0.00 0.00 26 1000.6
20260508222524 21 293 4.8 16.1 0.00 0.00 0.00 26 1000.7
20260508222023 21 164 4.8 14.5 0.00 0.00 0.00 25 1000.7
20260508221520 21 127 3.2 12.9 0.00 0.00 0.00 25 1000.7
20260508221018 21 282 6.4 16.1 0.00 0.00 0.00 25 1000.8
20260508220515 22 333 3.2 11.3 0.00 0.00 0.00 26 1000.8
20260508220034 22 2 3.2 14.5 0.00 0.00 0.00 27 1000.7
20260508215532 22 139 3.2 11.3 0.00 0.00 0.00 26 1000.9
20260508215030 22 162 1.6 6.4 0.00 0.00 0.00 26 1000.9
20260508214528 22 141 3.2 6.4 0.00 0.00 0.00 25 1001.0
20260508214027 22 329 1.6 9.7 0.00 0.00 0.00 25 1001.1
20260508213524 22 285 3.2 9.7 0.00 0.00 0.00 26 1001.1
20260508213023 21 306 4.8 16.1 0.00 0.00 0.00 27 1001.1
20260508212521 21 142 4.8 14.5 0.00 0.00 0.00 27 1001.1
20260508212018 21 149 3.2 9.7 0.00 0.00 0.00 27 1001.3
20260508211516 21 218 4.8 12.9 0.00 0.00 0.00 25 1001.3
20260508211034 21 123 3.2 11.3 0.00 0.00 0.00 26 1001.4
20260508210532 21 224 4.8 20.9 0.00 0.00 0.00 25 1001.7
20260508210030 22 358 4.8 14.5 0.00 0.00 0.00 25 1001.5
20260508205529 22 200 3.2 6.4 0.00 0.00 0.00 25 1001.6
20260508205027 22 289 4.8 9.7 0.00 0.00 0.00 25 1001.8
20260508204525 22 299 3.2 9.7 0.00 0.00 0.00 24 1001.9
20260508204022 22 353 3.2 12.9 0.00 0.00 0.00 25 1002.0
20260508203521 22 347 4.8 14.5 0.00 0.00 0.00 25 1002.1
20260508203016 22 309 3.2 16.1 0.00 0.00 0.00 24 1002.0
20260508202555 22 230 4.8 20.9 0.00 0.00 0.00 25 1002.2
20260508202032 22 186 6.4 16.1 0.00 0.00 0.00 26 1002.4
20260508201530 22 174 4.8 14.5 0.00 0.00 0.00 27 1002.3
20260508201028 22 158 3.2 11.3 0.00 0.00 0.00 27 1002.5
20260508200526 22 164 4.8 14.5 0.00 0.00 0.00 26 1002.6
20260508200024 22 317 3.2 11.3 0.00 0.00 0.00 27 1002.6
20260508195522 22 292 3.2 16.1 0.00 0.00 0.00 26 1002.8
20260508195020 22 171 4.8 12.9 0.00 0.00 0.00 26 1002.8
20260508194517 22 306 4.8 12.9 0.00 0.00 0.00 26 1002.8
20260508194035 22 174 6.4 14.5 0.00 0.00 0.00 28 1002.9
20260508193533 22 169 4.8 12.9 0.00 0.00 0.00 27 1002.9
20260508193031 22 160 6.4 14.5 0.00 0.00 0.00 27 1003.0
20260508192548 22 174 4.8 11.3 0.00 0.00 0.00 27 1003.1
20260508192022 21 300 4.8 14.5 0.00 0.00 0.00 27 1003.2
20260508191539 21 284 3.2 4.8 0.00 0.00 0.00 27 1003.2
20260508191017 21 231 3.2 9.7 0.00 0.00 0.00 27 1003.4
20260508190535 21 318 3.2 9.7 0.00 0.00 0.00 26 1003.4
20260508190033 21 296 3.2 17.7 0.00 0.00 0.00 27 1003.6
20260508185531 21 234 3.2 14.5 0.00 0.00 0.00 28 1003.6
20260508185029 21 196 1.6 6.4 0.00 0.00 0.00 27 1003.8
20260508184527 21 158 6.4 12.9 0.00 0.00 0.00 28 1003.8
20260508184025 21 147 4.8 11.3 0.00 0.00 0.00 29 1003.8
20260508183523 21 156 3.2 9.7 0.00 0.00 0.00 26 1004.0
20260508183021 21 332 4.8 12.9 0.00 0.00 0.00 24 1004.0
20260508182519 21 287 4.8 17.7 0.00 0.00 0.00 26 1004.0
20260508182016 21 347 3.2 14.5 0.00 0.00 0.00 24 1004.1
20260508181535 21 331 4.8 9.7 0.00 0.00 0.00 25 1004.2
20260508181052 21 333 6.4 14.5 0.00 0.00 0.00 25 1004.2
20260508180531 21 206 6.4 11.3 0.00 0.00 0.00 29 1004.4
20260508180028 21 146 4.8 12.9 0.00 0.00 0.00 27 1004.5
20260508175526 21 174 4.8 11.3 0.00 0.00 0.00 28 1004.6
20260508175105 20 266 6.4 20.9 0.00 0.00 0.00 28 1004.6
20260508174522 20 171 4.8 16.1 0.00 0.00 0.00 28 1004.6
20260508174020 20 242 4.8 16.1 0.00 0.00 0.00 31 1004.7
20260508173517 20 161 6.4 14.5 0.00 0.00 0.00 32 1004.9
20260508173016 20 152 8.0 12.9 0.00 0.00 0.00 32 1004.9
20260508172534 20 161 4.8 11.3 0.00 0.00 0.00 32 1005.0
20260508172031 20 169 4.8 14.5 0.00 0.00 0.00 32 1005.1
20260508171530 20 157 4.8 17.7 0.00 0.00 0.00 31 1005.3
20260508171027 20 163 4.8 12.9 0.00 0.00 0.00 32 1005.2
20260508170546 20 189 3.2 9.7 0.00 0.00 0.00 31 1005.4
20260508170024 20 160 4.8 11.3 0.00 0.00 0.00 33 1005.6
20260508165522 20 155 8.0 17.7 0.00 0.00 0.00 34 1005.5
20260508165019 19 288 4.8 12.9 0.00 0.00 0.00 30 1005.7
20260508164516 19 176 4.8 11.3 0.00 0.00 0.00 32 1005.7
20260508164035 19 176 6.4 12.9 0.00 0.00 0.00 33 1005.8
20260508163527 19 207 3.2 6.4 0.00 0.00 0.00 34 1005.8
20260508163026 19 149 8.0 14.5 0.00 0.00 0.00 34 1005.9
20260508162524 19 150 6.4 12.9 0.00 0.00 0.00 34 1006.0
20260508162021 18 187 4.8 14.5 0.00 0.00 0.00 33 1006.3
20260508161518 18 173 4.8 9.7 0.00 0.00 0.00 33 1006.3
20260508161016 18 136 4.8 12.9 0.00 0.00 0.00 35 1006.2
20260508160534 18 300 1.6 11.3 0.00 0.00 0.00 34 1006.5
20260508160052 18 305 4.8 12.9 0.00 0.00 0.00 35 1006.4
20260508155530 18 175 4.8 11.3 0.00 0.00 0.00 38 1006.3
20260508155028 17 177 4.8 11.3 0.00 0.00 0.00 38 1006.5
20260508154527 17 174 3.2 9.7 0.00 0.00 0.00 37 1006.5
20260508154025 17 160 3.2 6.4 0.00 0.00 0.00 39 1006.5
20260508153523 17 157 3.2 9.7 0.00 0.00 0.00 40 1006.8
20260508153021 17 192 3.2 9.7 0.00 0.00 0.00 40 1006.8
20260508152518 16 192 3.2 9.7 0.00 0.00 0.00 42 1006.8
20260508152016 16 137 4.8 11.3 0.00 0.00 0.00 44 1006.8
20260508151555 16 130 3.2 6.4 0.00 0.00 0.00 44 1006.9
20260508151033 15 125 1.6 6.4 0.00 0.00 0.00 43 1007.0
20260508150531 15 110 1.6 6.4 0.00 0.00 0.00 45 1007.1
20260508150029 15 88 3.2 6.4 0.00 0.00 0.00 48 1007.1
20260508145527 14 71 1.6 4.8 0.00 0.00 0.00 50 1007.1
20260508145025 13 288 0.0 3.2 0.00 0.00 0.00 50 1007.2
20260508144524 13 0.0 0.0 0.00 0.00 0.00 50 1007.3
20260508144022 13 0.0 0.0 0.00 0.00 0.00 51 1007.3
20260508143519 12 0.0 0.0 0.00 0.00 0.00 51 1007.3
20260508143017 12 0.0 0.0 0.00 0.00 0.00 51 1007.5
20260508142515 12 287 0.0 1.6 0.00 0.00 0.00 53 1007.4
20260508142033 11 291 1.6 3.2 0.00 0.00 0.00 54 1007.4
20260508141532 11 0.0 0.0 0.00 0.00 0.00 54 1007.4
20260508141050 11 0.0 0.0 0.00 0.00 0.00 58 1007.4
20260508140528 10 0.0 0.0 0.00 0.00 0.00 60 1007.5
20260508140026 10 0.0 0.0 0.00 0.00 0.00 61 1007.5
20260508135525 9 0.0 0.0 0.00 0.00 0.00 63 1007.5
20260508135043 8 0.0 0.0 0.00 0.00 0.00 64 1007.7
20260508134521 8 0.0 0.0 0.00 0.00 0.00 65 1007.8
20260508134038 7 0.0 0.0 0.00 0.00 0.00 68 1007.6
20260508133516 7 0.0 0.0 0.00 0.00 0.00 73 1007.7
20260508133034 6 0.0 0.0 0.00 0.00 0.00 78 1007.8
20260508132532 5 0.0 0.0 0.00 0.00 0.00 80 1007.7
20260508132031 3 0.0 0.0 0.00 0.00 0.00 81 1007.8
20260508131548 3 0.0 0.0 0.00 0.00 0.00 82 1007.8
20260508131026 2 0.0 0.0 0.00 0.00 0.00 82 1008.0
20260508130525 1 0.0 0.0 0.00 0.00 0.00 82 1007.9
20260508130023 1 0.0 0.0 0.00 0.00 0.00 83 1008.0
20260508125521 0 0.0 0.0 0.00 0.00 0.00 83 1008.1
20260508125018 0 0.0 0.0 0.00 0.00 0.00 83 1008.1
20260508124516 0 0.0 0.0 0.00 0.00 0.00 83 1008.0
20260508124034 0 0.0 0.0 0.00 0.00 0.00 84 1008.0
20260508123553 0 0.0 0.0 0.00 0.00 0.00 83 1008.1
20260508123031 -1 0.0 0.0 0.00 0.00 0.00 83 1007.9
20260508122549 -1 0.0 0.0 0.00 0.00 0.00 83 1007.9
20260508122048 -1 0.0 0.0 0.00 0.00 0.00 83 1007.9
20260508121526 -1 0.0 0.0 0.00 0.00 0.00 83 1007.8
20260508121024 -1 0.0 0.0 0.00 0.00 0.00 83 1007.8
20260508120522 -1 0.0 0.0 0.00 0.00 0.00 83 1007.9
20260508120021 -1 0.0 0.0 0.00 0.00 0.00 83 1007.8
20260508115518 -1 0.0 0.0 0.00 0.00 0.00 83 1007.7
20260508115016 -1 0.0 0.0 0.00 0.00 0.00 83 1007.8
20260508114533 -1 0.0 0.0 0.00 0.00 0.00 83 1007.8
20260508114032 -1 0.0 0.0 0.00 0.00 0.00 83 1007.7
20260508113530 -1 0.0 0.0 0.00 0.00 0.00 83 1007.7
20260508113028 -1 0.0 0.0 0.00 0.00 0.00 83 1007.7
20260508112547 -1 0.0 0.0 0.00 0.00 0.00 82 1007.8
20260508112025 -1 0.0 0.0 0.00 0.00 0.00 82 1007.7
20260508111543 -1 0.0 0.0 0.00 0.00 0.00 82 1007.8
20260508111041 -1 0.0 0.0 0.00 0.00 0.00 82 1007.7
20260508110518 -1 0.0 0.0 0.00 0.00 0.00 82 1007.7
20260508110016 -1 0.0 0.0 0.00 0.00 0.00 82 1007.7
20260508105615 -1 0.0 0.0 0.00 0.00 0.00 82 1007.7
20260508105033 -1 0.0 0.0 0.00 0.00 0.00 82 1007.7
20260508104551 -1 0.0 0.0 0.00 0.00 0.00 81 1007.7
20260508104030 -1 0.0 0.0 0.00 0.00 0.00 81 1007.8
20260508103528 -1 0.0 0.0 0.00 0.00 0.00 81 1007.8
20260508103026 -1 0.0 0.0 0.00 0.00 0.00 81 1007.9
20260508102524 -1 0.0 0.0 0.00 0.00 0.00 81 1007.8
20260508102023 -1 0.0 0.0 0.00 0.00 0.00 81 1007.8
20260508101520 -1 0.0 0.0 0.00 0.00 0.00 80 1007.8
20260508101018 -1 0.0 0.0 0.00 0.00 0.00 80 1007.8
20260508100516 -1 0.0 0.0 0.00 0.00 0.00 80 1008.0
20260508100034 -1 0.0 0.0 0.00 0.00 0.00 80 1007.9
20260508095533 -1 0.0 0.0 0.00 0.00 0.00 80 1007.9
20260508095031 -1 0.0 0.0 0.00 0.00 0.00 80 1008.0
20260508094529 -1 0.0 0.0 0.00 0.00 0.00 81 1008.0
20260508094027 -1 0.0 0.0 0.00 0.00 0.00 81 1008.0
20260508093525 -1 0.0 0.0 0.00 0.00 0.00 81 1008.0
20260508093024 -1 0.0 0.0 0.00 0.00 0.00 81 1008.0
20260508092522 -1 0.0 0.0 0.00 0.00 0.00 80 1008.0
20260508092020 -1 0.0 0.0 0.00 0.00 0.00 80 1008.0
20260508091517 -1 0.0 0.0 0.00 0.00 0.00 79 1008.2
20260508091016 0 0.0 0.0 0.00 0.00 0.00 79 1008.1
20260508090534 0 0.0 0.0 0.00 0.00 0.00 79 1008.2
20260508090032 0 0.0 0.0 0.00 0.00 0.00 79 1008.2
20260508085531 0 0.0 0.0 0.00 0.00 0.00 78 1008.3
20260508085029 0 0.0 0.0 0.00 0.00 0.00 78 1008.2
20260508084547 0 0.0 0.0 0.00 0.00 0.00 78 1008.3
20260508084025 0 0.0 0.0 0.00 0.00 0.00 77 1008.2
20260508083523 0 0.0 0.0 0.00 0.00 0.00 78 1008.3
20260508083102 0 0.0 0.0 0.00 0.00 0.00 78 1008.3
20260508082520 0 0.0 0.0 0.00 0.00 0.00 77 1008.4
20260508082017 0 0.0 0.0 0.00 0.00 0.00 77 1008.3
20260508081515 0 0.0 0.0 0.00 0.00 0.00 77 1008.4
20260508081034 0 0.0 0.0 0.00 0.00 0.00 76 1008.4
20260508080532 0 0.0 0.0 0.00 0.00 0.00 76 1008.4
20260508080030 0 0.0 0.0 0.00 0.00 0.00 76 1008.4
20260508075528 0 0.0 0.0 0.00 0.00 0.00 76 1008.4
20260508075027 0 0.0 0.0 0.00 0.00 0.00 76 1008.4
20260508074525 0 0.0 0.0 0.00 0.00 0.00 77 1008.5
20260508074023 0 0.0 0.0 0.00 0.00 0.00 75 1008.4
20260508073521 0 0.0 0.0 0.00 0.00 0.00 74 1008.4
20260508073019 0 0.0 0.0 0.00 0.00 0.00 74 1008.5
20260508072537 0 0.0 0.0 0.00 0.00 0.00 74 1008.5
20260508072035 0 0.0 0.0 0.00 0.00 0.00 74 1008.5
20260508071553 0 0.0 0.0 0.00 0.00 0.00 75 1008.5
20260508071032 0 0.0 0.0 0.00 0.00 0.00 74 1008.6
20260508070530 0 0.0 0.0 0.00 0.00 0.00 73 1008.7
20260508070028 0 0.0 0.0 0.00 0.00 0.00 73 1008.7
20260508065526 0 0.0 0.0 0.00 0.00 0.00 73 1008.7
20260508065025 1 0.0 0.0 0.00 0.00 0.00 73 1008.8